Location: North Evanston
(42.0634°N, 87.6976°W)
Time: 14:21:00
(UTC+00:00)

Vanguard 2 - Pass Details

Date: 16 May 2026
Orbit: 553 x 2894 km, 32.9° (Epoch: 8 June)

Event Time Altitude Azimuth Distance (km) Brightness Sun altitude
Rises 06:13:51 0° 219° (SW) 6,082 - -28.5°
Reaches altitude 10° 06:17:58 10° 213° (SSW) 5,304 - -28.4°
Exits shadow 06:29:09 37° 173° (S) 3,865 10.5 -28.1°
Maximum altitude 06:32:41 40° 151° (SSE) 3,767 10.6 -27.9°
Drops below altitude 10° 06:47:35 10° 90° (E) 5,394 12.0 -27.2°
Sets 06:51:45 0° 83° (E) 6,194 12.4 -27.0°
